Thedford, NE

9:41 PM CDT on May 26, 2017 (GMT -0500)
Thedford

Weather History for KTIF - May, 2013

Change the Weather History Date:

Thursday, May 9, 2013

  Actual Average (KANW) Record (KANW)
Temperature  
Mean Temperature 57 °F -  
Max Temperature 68 °F 65 °F 91 °F (2011)
Min Temperature 48 °F 42 °F 30 °F (2002)
Degree Days  
Heating Degree Days 8    
Growing Degree Days 7 (Base 50)    
Moisture  
Dew Point 44 °F    
Average Humidity 61    
Maximum Humidity 88    
Minimum Humidity 37    
Precipitation  
Precipitation 0.00 in - - ()
Sea Level Pressure  
Sea Level Pressure 30.09 in    
Wind  
Wind Speed 10 mph (NNE)    
Max Wind Speed 22 mph    
Max Gust Speed 29 mph    
Visibility 10 miles    
Events      
Averages and records for this station are not official NWS values.
T = Trace of Precipitation, MM = Missing Value Source: NWS Daily Summary

Daily Weather History Graph

Daily Weather History Graph

Search for Another Location

Airport or City:

Trip Planner

Search our weather history database for the weather conditions in past years. The results will help you decide how hot, cold, wet, or windy it might be!

Date:

Astronomy

May. 09, 2013 Rise Set
Actual Time 6:28 AM CDT 8:50 PM CDT
Civil Twilight 5:56 AM CDT 9:21 PM CDT
Nautical Twilight 5:18 AM CDT 10:00 PM CDT
Astronomical Twilight 4:35 AM CDT 10:43 PM CDT
Moon 6:14 AM CDT (5/9) 8:46 PM CDT (5/9)
Length of Visible Light 15h 24m
Length of Day
14h 21m
Waning Crescent, 0% of the Moon is Illuminated
May 9
Waning Crescent
May 9
New
May 17
First Quarter
May 24
Full
May 31
Last Quarter

Hourly Weather History & Observations

Time (CDT) Temp. Dew Point Humidity Pressure Visibility Wind Dir Wind Speed Gust Speed Precip Events Conditions
12:55 AM 51.4 °F 44.6 °F 77% 30.03 in 10.0 mi North 4.6 mph - N/A   Clear
1:15 AM 49.5 °F 43.7 °F 81% 30.04 in 10.0 mi WNW 4.6 mph - N/A   Clear
1:35 AM 48.4 °F 43.9 °F 84% 30.04 in 10.0 mi NW 3.5 mph - N/A   Clear
1:55 AM 48.4 °F 43.7 °F 84% 30.05 in 10.0 mi NW 4.6 mph - N/A   Clear
2:15 AM 49.1 °F 44.6 °F 84% 30.04 in 10.0 mi North 6.9 mph - N/A   Scattered Clouds
2:55 AM 50.0 °F 44.6 °F 82% 30.04 in 10.0 mi NW 3.5 mph - N/A   Clear
3:55 AM 48.4 °F 44.8 °F 87% 30.03 in 10.0 mi NNW 8.1 mph - N/A   Clear
4:35 AM 51.1 °F 46.6 °F 85% 30.02 in 10.0 mi NNW 13.8 mph - N/A   Mostly Cloudy
4:55 AM 52.0 °F 47.3 °F 84% 30.01 in 10.0 mi North 15.0 mph 19.6 mph N/A   Overcast
5:15 AM 52.3 °F 47.7 °F 84% 30.01 in 10.0 mi North 16.1 mph - N/A   Overcast
6:15 AM 52.2 °F 48.4 °F 87% 30.03 in 10.0 mi North 11.5 mph 23.0 mph N/A   Overcast
6:35 AM 52.3 °F 48.7 °F 88% 30.04 in 7.0 mi North 13.8 mph 19.6 mph N/A   Overcast
7:55 AM 52.7 °F 48.4 °F 85% 30.07 in 10.0 mi North 12.7 mph 21.9 mph N/A   Overcast
8:15 AM 52.7 °F 48.4 °F 85% 30.08 in 10.0 mi North 12.7 mph 18.4 mph N/A   Overcast
8:35 AM 52.9 °F 48.4 °F 85% 30.08 in 10.0 mi North 17.3 mph 25.3 mph N/A   Overcast
9:35 AM 53.4 °F 48.4 °F 83% 30.09 in 10.0 mi North 17.3 mph 24.2 mph N/A   Overcast
9:55 AM 53.6 °F 48.4 °F 82% 30.10 in 10.0 mi North 12.7 mph 20.7 mph N/A   Overcast
10:35 AM 56.7 °F 48.0 °F 73% 30.10 in 10.0 mi North 15.0 mph 23.0 mph N/A   Overcast
10:55 AM 57.0 °F 46.8 °F 69% 30.10 in 10.0 mi North 17.3 mph 28.8 mph N/A   Mostly Cloudy
11:15 AM 57.2 °F 46.4 °F 67% 30.11 in 10.0 mi NNE 20.7 mph 26.5 mph N/A   Overcast
11:35 AM 56.3 °F 46.8 °F 70% 30.12 in 10.0 mi NNE 16.1 mph - N/A   Overcast
12:15 PM 61.3 °F 46.8 °F 59% 30.11 in 10.0 mi NNE 18.4 mph 24.2 mph N/A   Mostly Cloudy
12:35 PM 59.5 °F 46.2 °F 61% 30.11 in 10.0 mi NNE 18.4 mph 21.9 mph N/A   Mostly Cloudy
12:55 PM 61.5 °F 45.3 °F 55% 30.11 in 10.0 mi NNE 17.3 mph 20.7 mph N/A   Overcast
1:15 PM 64.0 °F 44.6 °F 49% 30.11 in 10.0 mi NNE 21.9 mph 27.6 mph N/A   Mostly Cloudy
1:35 PM 64.8 °F 43.9 °F 47% 30.10 in 10.0 mi NE 18.4 mph 24.2 mph N/A   Mostly Cloudy
1:55 PM 63.9 °F 43.9 °F 48% 30.10 in 10.0 mi NNE 15.0 mph 24.2 mph N/A   Mostly Cloudy
2:15 PM 64.2 °F 43.9 °F 48% 30.11 in 10.0 mi NNE 13.8 mph 23.0 mph N/A   Mostly Cloudy
2:35 PM 65.1 °F 43.7 °F 46% 30.10 in 10.0 mi NNE 17.3 mph - N/A   Overcast
2:55 PM 65.3 °F 43.0 °F 44% 30.10 in 10.0 mi NNE 17.3 mph 24.2 mph N/A   Overcast
3:15 PM 66.7 °F 43.5 °F 43% 30.10 in 10.0 mi NE 16.1 mph 21.9 mph N/A   Mostly Cloudy
3:35 PM 66.4 °F 43.3 °F 43% 30.10 in 10.0 mi NNE 10.4 mph 21.9 mph N/A   Mostly Cloudy
3:55 PM 66.0 °F 42.8 °F 43% 30.09 in 10.0 mi NNE 17.3 mph 25.3 mph N/A   Scattered Clouds
4:15 PM 66.7 °F 42.1 °F 41% 30.08 in 10.0 mi NNE 19.6 mph 26.5 mph N/A   Scattered Clouds
4:35 PM 65.7 °F 42.4 °F 43% 30.09 in 10.0 mi NE 15.0 mph 23.0 mph N/A   Mostly Cloudy
4:55 PM 65.8 °F 41.7 °F 41% 30.08 in 10.0 mi NE 13.8 mph 21.9 mph N/A   Mostly Cloudy
5:15 PM 66.9 °F 40.8 °F 39% 30.08 in 10.0 mi NNE 16.1 mph 21.9 mph N/A   Scattered Clouds
5:35 PM 66.4 °F 41.2 °F 40% 30.07 in 10.0 mi NE 18.4 mph 24.2 mph N/A   Scattered Clouds
5:55 PM 66.0 °F 39.2 °F 37% 30.08 in 10.0 mi NNE 15.0 mph 21.9 mph N/A   Scattered Clouds
6:15 PM 65.7 °F 39.6 °F 38% 30.08 in 10.0 mi NE 17.3 mph 21.9 mph N/A   Scattered Clouds
6:35 PM 65.7 °F 39.2 °F 38% 30.08 in 10.0 mi NNE 15.0 mph 20.7 mph N/A   Clear
6:55 PM 64.6 °F 40.3 °F 41% 30.08 in 10.0 mi NE 11.5 mph 21.9 mph N/A   Scattered Clouds
7:15 PM 65.3 °F 39.7 °F 39% 30.08 in 10.0 mi NNE 10.4 mph - N/A   Scattered Clouds
7:35 PM 64.6 °F 39.4 °F 40% 30.09 in 10.0 mi NNE 12.7 mph 23.0 mph N/A   Scattered Clouds
7:55 PM 63.5 °F 40.1 °F 42% 30.09 in 10.0 mi NE 8.1 mph - N/A   Clear
8:15 PM 62.6 °F 39.6 °F 43% 30.10 in 10.0 mi NNE 6.9 mph - N/A   Clear
8:35 PM 62.1 °F 40.8 °F 46% 30.10 in 10.0 mi NE 6.9 mph - N/A   Mostly Cloudy
8:55 PM 60.4 °F 41.0 °F 49% 30.10 in 10.0 mi NE 5.8 mph - N/A   Scattered Clouds
9:15 PM 58.5 °F 41.4 °F 53% 30.11 in 10.0 mi Calm Calm - N/A   Scattered Clouds
9:35 PM 58.5 °F 41.5 °F 53% 30.12 in 10.0 mi Calm Calm - N/A   Mostly Cloudy
9:55 PM 57.4 °F 41.9 °F 56% 30.12 in 10.0 mi Calm Calm - N/A   Scattered Clouds
10:15 PM 54.7 °F 42.1 °F 62% 30.13 in 10.0 mi Calm Calm - N/A   Clear
10:35 PM 55.8 °F 42.1 °F 60% 30.13 in 10.0 mi Calm Calm - N/A   Clear
10:55 PM 54.0 °F 41.9 °F 64% 30.14 in 10.0 mi Calm Calm - N/A   Clear
11:15 PM 51.1 °F 41.7 °F 70% 30.14 in 10.0 mi Calm Calm - N/A   Clear
11:35 PM 49.6 °F 41.4 °F 73% 30.14 in 10.0 mi Calm Calm - N/A   Clear